{"data":{"norad_id":42987,"intl_designator":"2017-068A","name":"SKYSAT-C11","alt_names":[],"object_type":"PAYLOAD","status":"ACTIVE","operator":null,"country":"US","launch_date":"2017-10-31","launch_site_code":"AFWTR","launch_vehicle":null,"mission":null,"orbit_class":"UNKNOWN","rcs_meters":null,"size_class":null,"mass_kg":null,"dimensions":null,"purposes":["earth_obs"],"wikipedia_slug":null,"has_3d_model":false,"image_url":null,"decayed_at":null,"tle_current":{"epoch":"2026-09-19T15:37:11.684352Z","epoch_age_seconds":87731,"freshness":"FRESH","line1":"1 42987U 17068A   26262.65082968  .00028553  00000+0  31628-3 0  9999","line2":"2 42987  97.4464  56.0198 0000709  52.6617 307.4705 15.62952990497978","mean_motion":15.6295299,"eccentricity":7.09e-5,"inclination_deg":97.4464,"raan_deg":56.0198,"arg_perigee_deg":52.6617,"mean_anomaly_deg":307.4705,"bstar":0.00031628,"rev_number":49797,"period_min":92.133289306417,"perigee_km":378.65326439124,"apogee_km":379.61144518575,"semimajor_km":6757.2693547885,"source":"CELESTRAK","updated_at":"2026-09-20T09:00:34.708116Z"}}}